Starlink 3338

operational
NORAD ID: 50812 Int'l Des: 2022-001 Owner: SPXS Country: US Constellation: starlink
LEOCIRCULAR

About Starlink 3338

Description loading...

Live Position

Loading 3D Globe...

Upcoming Passes

Altitude History

Altitude vs Time

uPlot chart will show altitude changes over time

Two-Line Element Set

1 50812U 22001K 25302.54832139 -.00000274 00000-0 87691-6 0 9999
2 50812 53.2191 27.9456 0001424 98.2130 261.9024 15.08837454210749
Epoch: Oct 29, 2025 • Age: 5 hours

Current Status

Altitude 543.0 km
Velocity 7.60 km/s
Sub-Earth Point 41.52°N, 117.24°E
Launch Date Jan 6, 2022
Age 3.8 years
Type internet

Technical Details

Classification Payload
Mass 297.00 kg
Dry Mass 275.00 kg
Total Mass 297.00 kg
Length 0.20 m
Diameter 2.80 m
Span 9.00 m
Shape Box + pan
Manufacturer SPXS
Bus Type Starlink
Phase Status In Orbit
Owner/State SPXS/US

Large Constellations

Loading constellations...